Regional Weather Roundup
Issued by NWS Charleston, SC

Current Version | Previous Version | Graphics & Text | Print | Product List | Glossary On
Versions: 1 2 3 4 5 6 7 8 9 10 11 12 13 14 15 16 17 18 19 20 21 22 23 24 25 26 27 28 29 30 31 32 33 34 35 36 37 38 39 40 41 42 43 44 45 46 47 48 49 50
000 ASUS42 KCHS 231812 RWRCHS REGIONAL WEATHER ROUNDUP NATIONAL WEATHER SERVICE CHARLESTON SC 200 PM EDT TUE MAY 23 2017 NOTE: "FAIR" INDICATES FEW OR NO CLOUDS BELOW 12,000 FEET WITH NO SIGNIFICANT WEATHER AND/OR OBSTRUCTIONS TO VISIBILITY. NOT ALL STATIONS ARE QUALITY CONTROLLED. USE DATA WITH CAUTION... ESPECIALLY DEWPOINT OBSERVATIONS. SCZ027-030-031-034>040-042>050-231900- ...SOUTHEAST SOUTH CAROLINA... CITY SKY/WX TMP DP RH WIND PRES REMARKS N CHARLESTON TSTM 74 72 93 S15 29.79S FOG 6HR MIN TEMP: 73; 6HR MAX TEMP: 81; 6HR PCP: 0.10; WATERFRONT PRK N/A 78 73 84 W7G21 29.78F JOHNS ISLAND TSTM 73 72 94 W15G22 29.81R VSB 1/2 PINOPOLIS N/A 79 72 78 SW13 29.71F MONCKS CORNER MOCLDY 77 70 78 SW7 29.77F SUMMERVILLE FAIR 79 70 73 SW6 29.79F THUNDER BEAUFORT MCAS LGT RAIN 75 73 93 W8 29.79F 6HR MIN TEMP: 73; 6HR MAX TEMP: 81; 6HR PCP: 0.27; BEAUFORT ARPT FAIR 77 73 88 W9 29.79F HILTON HEAD IS PTSUNNY 79 73 83 S12 29.81F WALTERBORO LGT RAIN 79 70 73 W13 29.80S ALLENDALE MOCLDY 72 68 88 CALM 29.79F ...SOUTHERN MIDLANDS AND PEE DEE... CITY SKY/WX TMP DP RH WIND PRES REMARKS GEORGETOWN CLOUDY 79 72 78 SW9 29.78F KINGSTREE DRIZZLE 75 68 78 SW6 29.77F ORANGEBURG CLOUDY 72 68 87 W5 29.79F 6HR MIN TEMP: 70; 6HR MAX TEMP: 74; 6HR PCP: 0.07; BARNWELL MOCLDY 72 70 94 CALM 29.79F AIKEN LGT RAIN 72 68 88 SW7 29.82F MANNING LGT RAIN 73 72 94 W8 29.78F COLUMBIA PTSUNNY 75 70 84 SW8 29.77F 6HR MIN TEMP: 71; 6HR MAX TEMP: 75; 6HR PCP: 0.18; SUMTER NOT AVBL FLORENCE LGT RAIN 74 72 93 SW8 29.76F 6HR MIN TEMP: 70; 6HR MAX TEMP: 75; 6HR PCP: 0.10; MYRTLE BEACH PTSUNNY 79 72 78 S14 29.79F N MYRTLE BEACH MOSUNNY 79 72 79 S14 29.77F 6HR MIN TEMP: 73; 6HR MAX TEMP: 80; 6HR PCP: 0.31; $$ GAZ063-065-086>088-099>101-113>116-118-119-134>141-150-231900- ...SOUTHEAST GEORGIA... CITY SKY/WX TMP DP RH WIND PRES REMARKS SAVANNAH ARPT CLOUDY 77 71 82 SW9 29.80F 6HR MIN TEMP: 72; 6HR MAX TEMP: 82; 6HR PCP: 0.23; HUNTER AAF NOT AVBL FORT STEWART NOT AVBL STATESBORO HVY RAIN 71 71 100 N12 29.79F SYLVANIA LGT RAIN 73 72 97 NE6 29.80F CLAXTON FAIR N/A N/A N/A SE3 29.78F ...CSRA...CENTRAL AND FAR SOUTHEAST GEORGIA... CITY SKY/WX TMP DP RH WIND PRES REMARKS THOMSON RAIN 69 68 97 W5 29.84F FOG AUGUSTA-BUSH LGT RAIN 73 67 81 NW7 29.78F 6HR MIN TEMP: 72; 6HR MAX TEMP: 74; 6HR PCP: 0.30; AUGUSTA-DANIEL LGT RAIN 71 65 81 VRB3 29.80F SWAINSBORO HVY RAIN 70 70 100 CALM 29.81F VIDALIA CLOUDY 72 70 94 NE17 29.76F THUNDER EASTMAN HVY RAIN 72 72 100 E3 29.81F HAZLEHURST CLOUDY 80 74 82 SW7 29.77F ALMA CLOUDY 82 71 69 S12 29.78F 6HR MIN TEMP: 74; 6HR MAX TEMP: 83; 6HR PCP: TRACE; WAYCROSS CLOUDY 86 77 73 SW13 29.79F HX 97 JESUP CLOUDY 82 68 61 SW6 29.80F BAXLEY CLOUDY 81 77 89 SW9G18 29.78F BRUNSWICK LGT RAIN 81 73 78 SW10 29.82F SAINT SIMONS CLOUDY 81 72 74 SW8 29.81F 6HR MIN TEMP: 76; 6HR MAX TEMP: 82; 6HR PCP: TRACE; $$ SCZ027-028-034-036>038-045-046-048>050-GAZ119-141-231900- ...LAKE AND SUPPLEMENTAL COASTAL OBSERVATIONS... STATION/POSITION TIME TEMP WIND PRES WAVE SWELL AIR SEA DIR/SP/G HT/PER HT/PER/DIR (UTC) (F) (DEG/KT/KT) (MB) (FT/S) (FT/S/D) WINYAH BAY 1645 78 220/ 8 1010.0 LAKE MURRAY 1720 72 250/ 9/ 13 1008.1F ACE BASIN NERRS 1645 79 230/ 3 1010.0 FORT PULASKI 1748 79 250/ 7/ 12 1009.2F SAPELO ISLAND 1700 81 220/ 12 1010.0 $$ ANZ835-935-AMZ111-154-330-350-352-354-370-450-454-472-231900- ...C-MAN AND BUOY OBSERVATIONS... STATION/POSITION TIME TEMP WIND PRES WAVE SWELL AIR SEA DIR/SP/G HT/PER HT/PER/DIR (UTC) (F) (DEG/KT/KT) (MB) (FT/S) (FT/S/D) BUOY 41004 1750 77 78 210/ 17/ 21 1009.3F 5/ 7 BUOY 41008 1650 78 78 200/ 16/ 19 1010.3 4/ 5 2/ 80/ 8 FOLLY BEACH CMAN 1700 78 200/ 18/ 22 1009.7F CAPERS NEARSHORE 1708 79 76 220/ 14/ 19 1009.1F FRIPP NEARSHORE 1708 78 80 210/ 17/ 23 1009.0F STATION/POSITION TIME TEMP WIND PRES WAVE SWELL AIR SEA DIR/SP/G HT/PER HT/PER/DIR (UTC) (F) (DEG/KT/KT) (MB) (FT/S) (FT/S/D) 5E ST. MARYS GA 1700 79 N/A 3/ 5 FRYING PAN BUOY 1750 78 78 220/ 16/ 19 1009.3F 6/ 6 2/210/12 BUOY 41025 1750 73 77 190/ 19/ 25 1009.0F 5/ 5 2/110/ 9 CAPE LOOKOUT NC 1700 72 190/ 14/ 18 1009.0F BUOY 41002 1650 76 76 200/ 17/ 19 1014.6 5/ 5 2/14 BUOY 41010 1750 79 79 190/ 14/ 17 1013.8F 4/ 6 2/100/ 8 ST AUGUSTINE FL 1800 85 80 190/ 18/ 20 1010.7F $$

USA.gov is the U.S. government's official web portal to all federal, state and local government web resources and services.